Home > Weather > Zaragoza > Past weeks

Flag for Spain Past Weather in Zaragoza, Spain — Yesterday and Last 2 Weeks

Now
79 °F

Passing clouds.


Feels Like: 80 °F
Forecast: 64 / 89 °F
Wind: 9 mph from West

Location: Zaragoza / Aeropuerto

Current Time: Jun 29, 2016 at 10:04:46 PM

Latest Report: Jun 29, 2016 at 9:30 PM


Visibility: N/A

Pressure: 29.95 "Hg

Humidity: 58%

Dew Point: 63 °F

Location of ZaragozaLocation

Past Weather in Zaragoza — Graph

°F

Zaragoza Temperature Yesterday

Maximum temperature yesterday: 95 °F (at 5:30 PM)
Minimum temperature yesterday: 63 °F (at 7:00 AM)
Average temperature yesterday: 79 °F

High & Low Weather Summary for the Past Weeks

 TemperatureHumidityPressure
High97 °F (Jun 22, 4:00 PM)94% (Jun 17, 6:30 AM)30.36 "Hg (Jun 17, 6:30 AM)
Low50 °F (Jun 17, 6:30 AM)13% (Jun 23, 4:30 PM)29.53 "Hg (Jun 15, 6:00 PM)
Average72 °F49%30.05 "Hg
* Reported Jun 14 8:00 PM — Jun 29 8:30 PM, Zaragoza, Weather by CustomWeather, © 2016

Note: Actual official high and low records may vary slightly from our data, if they occured in-between our weather recording intervals... More about our weather records

Advertising

Zaragoza Weather History for the Previous 24 Hours

Scroll right to see more
 ConditionsComfort  
Time TempWeatherWind HumidityBarometerVisibility
8:30 PM
Wed, Jun 29
81 °FPassing clouds.9 mph51%29.92 "HgN/A
8:00 PM81 °FPassing clouds.6 mph51%29.89 "HgN/A
7:30 PM82 °FPassing clouds.1 mph45%29.89 "HgN/A
7:00 PM81 °FThundershowers. Passing clouds.6 mph62%29.89 "HgN/A
6:30 PM81 °FThunderstorms. Scattered clouds.9 mph51%29.92 "HgN/A
6:00 PM82 °FThunderstorms. Scattered clouds.5 mph48%29.92 "HgN/A
5:30 PM84 °FThunderstorms. Scattered clouds.7 mph40%29.92 "HgN/A
5:00 PM86 °FThundershowers. Scattered clouds.3 mph35%29.92 "HgN/A
4:30 PM86 °FPassing clouds.8 mph35%29.92 "HgN/A
4:00 PM86 °FPassing clouds.13 mph33%29.92 "HgN/A
3:30 PM86 °FPassing clouds.10 mph35%29.95 "HgN/A
3:00 PM84 °FPassing clouds.10 mph40%29.95 "HgN/A
2:30 PM82 °FPassing clouds.8 mph42%29.98 "HgN/A
2:00 PM79 °FPassing clouds.6 mph48%29.98 "HgN/A
1:30 PM79 °FPassing clouds.3 mph45%29.98 "HgN/A
1:00 PM77 °FPassing clouds.1 mph47%30.01 "HgN/A
12:30 PM72 °FPassing clouds.5 mph57%30.01 "HgN/A
12:00 PM72 °FPassing clouds.7 mph57%30.01 "HgN/A
11:30 AM70 °FPassing clouds.7 mph60%30.01 "HgN/A
11:00 AM72 °FPassing clouds.9 mph57%30.01 "HgN/A
10:30 AM70 °FPassing clouds.10 mph60%30.04 "HgN/A
10:00 AM72 °FPassing clouds.10 mph57%30.04 "HgN/A
9:30 AM70 °FPassing clouds.13 mph60%30.04 "HgN/A
9:00 AM68 °FPassing clouds.14 mph64%30.04 "HgN/A
8:30 AM66 °FPassing clouds.16 mph68%30.01 "HgN/A
8:00 AM64 °FPassing clouds.16 mph73%30.01 "HgN/A
7:30 AM64 °FPassing clouds.15 mph68%30.04 "HgN/A
7:00 AM64 °FPassing clouds.15 mph73%30.04 "HgN/A
6:30 AM64 °FPassing clouds.15 mph73%30.04 "HgN/A
6:00 AM66 °FPassing clouds.15 mph68%30.01 "HgN/A
5:30 AM66 °FPassing clouds.16 mph68%30.04 "HgN/A
5:00 AM66 °FPassing clouds.16 mph68%30.01 "HgN/A
4:30 AM66 °FPassing clouds.15 mph68%30.01 "HgN/A
4:00 AM68 °FPassing clouds.20 mph64%30.01 "HgN/A
3:30 AM68 °FPassing clouds.17 mph64%30.01 "HgN/A
3:00 AM70 °FPassing clouds.16 mph60%30.01 "HgN/A
2:30 AM70 °FPassing clouds.16 mph60%30.01 "HgN/A
2:00 AM70 °FPassing clouds.18 mph60%30.01 "HgN/A
1:30 AM70 °FPassing clouds.16 mph64%30.01 "HgN/A
1:00 AM72 °FPassing clouds.18 mph61%30.01 "HgN/A
12:30 AM73 °FPassing clouds.18 mph57%29.98 "HgN/A
12:00 AM75 °FPassing clouds.18 mph54%29.98 "HgN/A
11:30 PM
Tue, Jun 28
79 °FPassing clouds.15 mph48%29.98 "HgN/A
11:00 PM81 °FPassing clouds.17 mph45%29.98 "HgN/A
10:30 PM86 °FPassing clouds.5 mph35%29.95 "HgN/A
10:00 PM88 °FPassing clouds.3 mph31%29.95 "HgN/A
Weather by CustomWeather, © 2016

See weather overviewHow to use our weather pages